Location: Korczew
(51.3586°N, 19.4491°E)
Time: 22:05:51
(UTC+00:00)

Cosmos 1000 Rocket - Pass Details

Date: 19 May 2025
Orbit: 954 x 990 km, 82.9° (Epoch: 16 June)

Event Time Altitude Azimuth Distance (km) Brightness Sun altitude
Exits shadow 23:08:01 30° 182° (S) 1,631 5.1 -18.4°
Maximum altitude 23:11:14 82° 98° (E) 974 4.4 -18.3°
Drops below altitude 10° 23:17:26 10° 11° (NNE) 2,713 8.1 -18.2°
Sets 23:19:58 0° 11° (N) 3,668 9.3 -18.1°
